Location: ?
(35.3436°N, 139.3168°E)
Time: 11:25:05
(UTC+00:00)

X-37B - Pass Details

Date: 09 May 2021
Orbit: 386 x 389 km, 45.0° (Epoch: 10 June)

Event Time Altitude Azimuth Distance (km) Brightness Sun altitude
Rises 11:03:39 0° 303° (WNW) 2,272 6.3 -16.5°
Reaches altitude 10° 11:06:23 10° 328° (NNW) 1,416 4.5 -17.0°
Maximum altitude 11:08:18 15° 5° (N) 1,163 3.4 -17.3°
Drops below altitude 10° 11:10:13 10° 42° (NE) 1,414 3.4 -17.6°
Enters shadow 11:10:32 - 47° (NE) 1,496 3.4 -17.7°
